Location: ???????
(54.6339°N, 39.4245°E)
Time: 14:59:53
(UTC+00:00)

KORONAS-FOTON - Pass Details

Date: 19 May 2025
Orbit: 447 x 464 km, 82.4° (Epoch: 20 June)

Event Time Altitude Azimuth Distance (km) Brightness Sun altitude
Exits shadow 20:15:47 25° 140° (SE) 959 4.6 -14.2°
Maximum altitude 20:17:10 36° 94° (E) 741 4.4 -14.2°
Drops below altitude 10° 20:20:25 10° 26° (NNE) 1,606 7.0 -14.4°
Sets 20:22:35 0° 18° (NNE) 2,481 8.3 -14.4°
